period_start,C,m1,H,J0,J1,J2,J3,J4,J5,JA,JB,JC,JD,JJ,JK,JN,#
2013-07-07 00:00:12,0.01,2.14,0.00,24.05,28.17,30.61,5.77,29.71,1002.53,2056.05,2830.10,2684.07,2933.83,349.73,318.47,34.47,0000 0000 0000 0000 000000
2013-07-07 00:01:12,0.01,2.14,0.00,24.05,28.17,30.60,5.88,29.88,1002.52,2056.08,2830.06,2684.05,2933.77,348.61,317.08,34.47,0000 0000 0000 0000 000000
2013-07-07 00:02:12,0.04,2.14,0.00,24.06,28.17,30.60,6.02,29.83,1002.52,2056.13,2830.04,2684.02,2933.73,350.46,318.52,34.48,0000 0000 0000 0000 000000
2013-07-07 00:03:13,0.04,2.14,0.00,24.05,28.17,30.58,5.91,29.75,1002.51,2056.14,2830.07,2684.02,2933.78,350.58,318.88,34.48,0000 0000 0000 0000 000000
2013-07-07 00:04:13,-0.01,2.14,0.00,24.05,28.17,30.59,5.94,30.04,1002.49,2056.11,2830.04,2684.03,2933.74,349.08,317.50,34.49,0000 0000 0000 0000 000000
2013-07-07 00:05:13,-0.00,2.14,0.00,24.04,28.16,30.60,6.00,29.79,1002.50,2056.14,2830.02,2684.03,2933.65,349.91,318.30,34.50,0000 0000 0000 0000 000000
2013-07-07 00:06:13,0.04,2.14,0.00,24.03,28.15,30.59,5.74,29.88,1002.47,2056.23,2830.02,2684.04,2933.63,348.76,317.66,34.50,0000 0000 0000 0000 000000
2013-07-07 00:07:14,0.07,2.14,0.00,24.03,28.15,30.59,5.83,29.83,1002.47,2056.36,2830.00,2684.04,2933.55,350.60,318.90,34.51,0000 0000 0000 0000 000000
2013-07-07 00:08:14,0.10,2.14,0.00,24.03,28.15,30.58,5.93,29.92,1002.48,2056.50,2830.00,2684.04,2933.45,348.66,317.54,34.51,0000 0000 0000 0000 000000
2013-07-07 00:09:14,0.14,2.14,0.00,24.02,28.15,30.58,5.88,29.96,1002.47,2056.65,2830.00,2684.01,2933.38,349.58,317.92,34.52,0000 0000 0000 0000 000000
2013-07-07 00:10:15,0.17,2.14,0.00,24.03,28.15,30.58,6.05,30.04,1002.47,2056.76,2830.00,2684.00,2933.28,350.18,318.71,34.53,0000 0000 0000 0000 000000
2013-07-07 00:11:15,0.08,2.14,0.00,24.04,28.15,30.57,5.98,29.79,1002.48,2056.76,2830.00,2684.01,2933.25,350.58,318.87,34.53,0000 0000 0000 0000 000000
2013-07-07 00:12:15,-0.01,2.14,0.00,24.04,28.14,30.56,5.94,29.46,1002.49,2056.74,2830.00,2684.01,2933.14,350.96,319.22,34.54,0000 0000 0000 0000 000000
2013-07-07 00:13:15,0.06,2.14,0.00,24.04,28.13,30.57,6.08,29.79,1002.47,2056.80,2830.00,2684.01,2933.11,350.88,319.27,34.54,0000 0000 0000 0000 000000
2013-07-07 00:14:16,0.06,2.14,0.00,24.06,28.12,30.56,5.80,29.92,1002.47,2056.87,2830.00,2684.01,2933.14,349.83,318.17,34.55,0000 0000 0000 0000 000000
2013-07-07 00:15:16,0.01,2.14,0.00,24.07,28.12,30.56,5.76,29.96,1002.46,2056.87,2830.00,2684.02,2933.22,348.45,316.90,34.55,0000 0000 0000 0000 000000
2013-07-07 00:16:16,-0.01,2.14,0.00,24.05,28.12,30.56,5.88,29.71,1002.47,2056.88,2829.99,2684.01,2933.32,350.38,318.68,34.56,0000 0000 0000 0000 000000
2013-07-07 00:17:17,0.01,2.14,0.00,24.04,28.12,30.56,5.77,29.79,1002.47,2056.90,2829.99,2684.00,2933.28,348.97,317.76,34.57,0000 0000 0000 0000 000000
2013-07-07 00:18:17,0.01,2.14,0.00,24.04,28.12,30.55,5.99,29.83,1002.46,2056.91,2829.96,2684.00,2933.21,349.82,318.18,34.57,0000 0000 0000 0000 000000
2013-07-07 00:19:17,0.03,2.15,0.00,24.03,28.12,30.55,5.82,29.92,1002.47,2056.93,2829.95,2684.00,2933.13,349.13,317.38,34.58,0000 0000 0000 0000 000000
2013-07-07 00:20:18,0.01,2.15,0.00,24.02,28.12,30.55,5.92,29.83,1002.46,2056.94,2829.97,2684.00,2933.14,350.02,318.38,34.58,0000 0000 0000 0000 000000
2013-07-07 00:21:18,0.00,2.15,0.00,24.00,28.11,30.54,5.82,30.00,1002.46,2056.96,2829.99,2684.00,2933.16,349.09,317.55,34.59,0000 0000 0000 0000 000000
2013-07-07 00:22:18,-0.01,2.15,0.00,24.01,28.10,30.54,5.92,29.96,1002.46,2056.96,2829.99,2684.00,2933.16,350.28,318.41,34.60,0000 0000 0000 0000 000000
2013-07-07 00:23:18,0.00,2.15,0.00,24.02,28.10,30.53,5.82,29.88,1002.46,2056.97,2829.98,2684.01,2933.15,349.26,317.70,34.60,0000 0000 0000 0000 000000
2013-07-07 00:24:19,-0.00,2.15,0.00,24.02,28.10,30.53,5.91,29.83,1002.45,2056.94,2829.98,2684.00,2933.11,349.59,317.99,34.61,0000 0000 0000 0000 000000
2013-07-07 00:25:19,-0.00,2.15,0.00,24.02,28.10,30.52,5.89,30.00,1002.45,2056.95,2829.98,2684.00,2933.08,348.96,317.51,34.61,0000 0000 0000 0000 000000
2013-07-07 00:26:19,0.03,2.15,0.00,24.02,28.10,30.53,5.99,29.83,1002.45,2056.97,2829.98,2684.00,2933.07,350.07,318.62,34.62,0000 0000 0000 0000 000000
2013-07-07 00:27:19,0.01,2.15,0.00,24.02,28.10,30.53,5.85,29.88,1002.45,2056.97,2829.99,2684.02,2933.13,349.42,318.42,34.62,0000 0000 0000 0000 000000
2013-07-07 00:28:20,-0.01,2.15,0.00,24.02,28.10,30.53,5.89,29.79,1002.45,2056.97,2829.99,2684.02,2933.13,350.25,318.33,34.63,0000 0000 0000 0000 000000
2013-07-07 00:29:20,0.00,2.15,0.00,24.01,28.09,30.53,5.83,29.88,1002.46,2056.99,2829.99,2684.02,2933.20,349.82,318.19,34.64,0000 0000 0000 0000 000000
2013-07-07 00:30:20,-0.00,2.15,0.00,24.00,28.08,30.53,6.04,30.13,1002.46,2056.99,2829.96,2684.03,2933.25,349.66,318.07,34.64,0000 0000 0000 0000 000000
2013-07-07 00:31:20,-0.00,2.15,0.00,24.00,28.07,30.53,5.91,29.71,1002.46,2056.99,2829.98,2684.03,2933.31,350.38,318.84,34.65,0000 0000 0000 0000 000000
2013-07-07 00:32:21,-0.01,2.15,0.00,24.00,28.07,30.51,6.10,29.88,1002.46,2056.99,2829.99,2684.04,2933.48,351.20,319.47,34.65,0000 0000 0000 0000 000000
2013-07-07 00:33:21,-0.03,2.15,0.00,24.00,28.07,30.51,5.81,30.04,1002.46,2056.99,2829.99,2684.07,2933.68,348.18,316.94,34.66,0000 0000 0000 0000 000000
2013-07-07 00:34:21,-0.03,2.14,0.00,23.99,28.07,30.51,5.87,29.88,1002.46,2056.99,2829.99,2684.09,2933.76,349.77,318.46,34.67,0000 0000 0000 0000 000000
2013-07-07 00:35:21,-0.00,2.14,0.00,23.97,28.07,30.51,5.80,29.75,1002.46,2056.99,2829.99,2684.06,2933.68,349.36,317.66,34.67,0000 0000 0000 0000 000000
2013-07-07 00:36:22,0.02,2.14,0.00,23.99,28.07,30.51,5.99,29.71,1002.46,2056.99,2829.98,2684.04,2933.64,351.14,319.41,34.68,0000 0000 0000 0000 000000
2013-07-07 00:37:22,0.01,2.15,0.00,23.99,28.07,30.50,5.83,29.96,1002.45,2056.99,2829.99,2684.03,2933.55,348.57,317.09,34.68,0000 0000 0000 0000 000000
2013-07-07 00:38:22,0.01,2.15,0.00,23.98,28.07,30.51,5.86,29.75,1002.46,2056.99,2829.99,2684.03,2933.43,349.55,317.61,34.69,0000 0000 0000 0000 000000
2013-07-07 00:39:22,0.02,2.15,0.00,23.97,28.05,30.49,6.02,29.71,1002.46,2056.99,2829.98,2684.03,2933.42,351.49,319.40,34.69,0000 0000 0000 0000 000000
2013-07-07 00:40:23,-0.00,2.15,0.00,23.98,28.05,30.49,5.87,30.04,1002.46,2056.99,2829.99,2684.02,2933.39,349.20,317.56,34.70,0000 0000 0000 0000 000000
2013-07-07 00:41:23,0.00,2.15,0.00,23.97,28.05,30.49,5.83,29.79,1002.46,2056.99,2829.95,2684.00,2933.31,348.97,317.47,34.71,0000 0000 0000 0000 000000
2013-07-07 00:42:23,0.02,2.15,0.00,23.96,28.05,30.49,5.88,29.96,1002.46,2056.99,2829.95,2684.00,2933.17,349.75,318.19,34.71,0000 0000 0000 0000 000000
2013-07-07 00:43:23,0.01,2.15,0.00,23.96,28.05,30.50,5.74,29.83,1002.46,2056.99,2829.92,2684.00,2933.12,349.52,317.98,34.72,0000 0000 0000 0000 000000
2013-07-07 00:44:23,0.00,2.15,0.00,23.96,28.05,30.47,5.91,29.88,1002.46,2056.99,2829.93,2684.01,2933.15,349.24,317.44,34.72,0000 0000 0000 0000 000000
2013-07-07 00:45:24,-0.01,2.15,0.00,23.96,28.05,30.47,5.73,29.88,1002.46,2056.99,2829.95,2684.01,2933.24,349.02,317.44,34.73,0000 0000 0000 0000 000000
2013-07-07 00:46:24,-0.01,2.15,0.00,23.97,28.05,30.47,5.91,30.04,1002.45,2056.99,2829.96,2684.00,2933.23,349.96,319.03,34.74,0000 0000 0000 0000 000000
2013-07-07 00:47:24,0.00,2.15,0.00,23.98,28.04,30.47,5.94,29.88,1002.43,2056.99,2829.98,2684.01,2933.19,350.07,318.59,34.74,0000 0000 0000 0000 000000
2013-07-07 00:48:25,0.00,2.15,0.00,23.98,28.04,30.46,5.83,29.88,1002.43,2056.99,2829.97,2684.01,2933.15,349.00,317.48,34.75,0000 0000 0000 0000 000000
2013-07-07 00:49:25,0.01,2.15,0.00,23.97,28.03,30.46,5.88,29.88,1002.45,2056.99,2829.93,2684.00,2933.11,349.56,318.01,34.75,0000 0000 0000 0000 000000
2013-07-07 00:50:25,0.01,2.15,0.00,23.99,28.02,30.46,5.80,29.92,1002.43,2056.99,2829.91,2684.00,2933.08,349.05,317.51,34.76,0000 0000 0000 0000 000000
2013-07-07 00:51:25,0.00,2.15,0.00,24.00,28.02,30.46,5.78,30.00,1002.39,2056.99,2829.92,2684.01,2933.08,349.98,318.20,34.77,0000 0000 0000 0000 000000
2013-07-07 00:52:26,0.00,2.15,0.00,24.00,28.02,30.45,5.76,29.75,1002.42,2056.99,2829.94,2684.01,2933.08,350.73,319.04,34.77,0000 0000 0000 0000 000000
2013-07-07 00:53:26,0.00,2.15,0.00,24.01,28.02,30.45,5.89,30.13,1002.38,2056.99,2829.83,2684.00,2933.07,350.00,318.35,34.78,0000 0000 0000 0000 000000
2013-07-07 00:54:26,0.02,2.15,0.00,24.00,28.02,30.44,5.93,30.00,1002.35,2056.99,2829.75,2684.00,2933.06,350.42,318.72,34.78,0000 0000 0000 0000 000000
2013-07-07 00:55:26,0.01,2.15,0.00,24.01,28.02,30.43,5.86,29.88,1002.30,2056.99,2829.64,2684.00,2933.04,349.68,318.03,34.79,0000 0000 0000 0000 000000
2013-07-07 00:56:26,0.01,2.15,0.00,24.02,28.02,30.44,5.87,29.92,1002.19,2056.99,2829.77,2684.00,2933.04,349.86,318.29,34.79,0000 0000 0000 0000 000000
2013-07-07 00:57:27,-0.02,2.15,0.00,24.02,28.02,30.42,5.98,30.13,1002.15,2056.99,2829.86,2684.00,2933.07,350.58,318.47,34.80,0000 0000 0000 0000 000000
2013-07-07 00:58:27,-0.01,2.15,0.00,24.02,28.02,30.41,5.90,30.00,1002.15,2056.99,2829.81,2684.00,2933.05,349.93,318.12,34.81,0000 0000 0000 0000 000000
2013-07-07 00:59:27,0.02,2.15,0.00,24.02,28.00,30.41,5.92,29.75,1002.21,2056.99,2829.67,2684.00,2933.03,350.39,318.63,34.81,0000 0000 0000 0000 000000
2013-07-07 01:00:27,0.02,2.15,0.00,24.02,28.00,30.41,5.85,29.75,1002.21,2056.99,2829.60,2684.00,2933.05,350.22,318.49,34.82,0000 0000 0000 0000 000000
2013-07-07 01:01:28,0.00,2.15,0.00,24.03,28.00,30.41,5.78,29.58,1002.16,2056.99,2829.61,2684.01,2933.09,350.00,318.34,34.82,0000 0000 0000 0000 000000
2013-07-07 01:02:28,0.00,2.15,0.00,24.03,28.00,30.42,5.99,29.75,1002.15,2056.99,2829.48,2684.01,2933.07,350.84,318.62,34.83,0000 0000 0000 0000 000000
2013-07-07 01:03:28,0.03,2.15,0.00,24.02,28.00,30.41,6.01,29.92,1002.11,2056.99,2829.23,2684.00,2933.03,349.70,317.43,34.84,0000 0000 0000 0000 000000
2013-07-07 01:04:28,0.04,2.15,0.00,24.02,28.00,30.40,5.89,29.92,1002.18,2056.99,2829.10,2684.00,2933.02,349.60,318.15,34.84,0000 0000 0000 0000 000000
2013-07-07 01:05:28,0.02,2.15,0.00,24.02,28.00,30.40,5.88,30.17,1002.12,2056.99,2829.08,2684.00,2933.00,350.08,318.32,34.85,0000 0000 0000 0000 000000
2013-07-07 01:06:29,0.00,2.15,0.00,24.02,28.00,30.40,5.81,30.13,1002.08,2056.99,2829.07,2684.00,2933.01,349.59,317.94,34.85,0000 0000 0000 0000 000000
2013-07-07 01:07:29,0.00,2.15,0.00,24.01,28.00,30.41,5.76,29.92,1002.10,2056.99,2829.05,2684.00,2933.01,349.91,318.13,34.86,0000 0000 0000 0000 000000
2013-07-07 01:08:29,0.01,2.15,0.00,24.02,28.00,30.42,5.97,29.79,1002.10,2057.01,2829.04,2684.00,2933.01,350.23,318.52,34.86,0000 0000 0000 0000 000000
2013-07-07 01:09:29,0.01,2.15,0.00,24.02,28.00,30.40,6.01,29.83,1002.24,2057.01,2829.02,2684.00,2933.00,350.79,318.98,34.87,0000 0000 0000 0000 000000
2013-07-07 01:10:30,0.00,2.15,0.00,24.02,28.00,30.39,6.02,30.08,1002.28,2057.02,2828.97,2683.93,2933.00,349.41,317.77,34.88,0000 0000 0000 0000 000000
2013-07-07 01:11:30,0.03,2.15,0.00,24.02,28.00,30.38,5.85,29.92,1002.37,2057.01,2828.67,2683.73,2932.98,349.96,318.30,34.88,0000 0000 0000 0000 000000
2013-07-07 01:12:30,0.12,2.15,0.00,24.02,27.99,30.38,5.78,29.92,1002.38,2057.00,2828.28,2683.50,2932.90,349.96,318.30,34.89,0000 0000 0000 0000 000000
2013-07-07 01:13:30,0.13,2.15,0.00,24.01,27.99,30.38,5.81,29.88,1002.43,2057.02,2828.10,2683.29,2932.82,349.75,318.13,34.89,0000 0000 0000 0000 000000
2013-07-07 01:14:31,0.12,2.15,0.00,24.01,27.98,30.39,5.83,29.92,1002.41,2057.03,2828.04,2683.13,2932.69,350.49,318.80,34.90,0000 0000 0000 0000 000000
2013-07-07 01:15:31,0.07,2.15,0.00,24.00,27.97,30.38,5.91,29.71,1002.42,2057.04,2828.01,2683.05,2932.36,349.45,317.87,34.91,0000 0000 0000 0000 000000
2013-07-07 01:16:31,0.08,2.15,0.00,24.00,27.97,30.38,5.77,29.92,1002.43,2057.06,2827.97,2683.02,2932.13,348.63,317.13,34.91,0000 0000 0000 0000 000000
2013-07-07 01:17:31,0.08,2.15,0.00,24.00,27.97,30.38,5.93,29.75,1002.42,2057.09,2827.94,2683.00,2932.05,349.67,318.39,34.92,0000 0000 0000 0000 000000
2013-07-07 01:18:32,0.02,2.15,0.00,24.00,27.97,30.39,5.88,29.88,1002.42,2057.07,2827.78,2683.00,2932.02,349.83,317.44,34.92,0000 0000 0000 0000 000000
2013-07-07 01:19:32,0.02,2.15,0.00,24.01,27.97,30.39,5.88,29.88,1002.38,2057.14,2827.35,2682.98,2932.00,349.30,318.19,34.93,0000 0000 0000 0000 000000
2013-07-07 01:20:32,0.14,2.15,0.00,24.01,27.97,30.40,5.77,29.79,1002.31,2057.09,2827.13,2682.91,2932.00,349.47,317.84,34.94,0000 0000 0000 0000 000000
2013-07-07 01:21:32,0.00,2.15,0.00,24.01,27.97,30.38,5.57,29.79,1002.15,2057.08,2827.05,2682.80,2931.99,348.75,316.81,34.94,0000 0000 0000 0000 000000
2013-07-07 01:22:32,0.04,2.15,0.00,24.02,27.97,30.38,5.86,29.83,1002.12,2057.15,2827.01,2682.68,2931.94,351.19,319.48,34.95,0000 0000 0000 0000 000000
2013-07-07 01:23:32,0.10,2.15,0.00,24.01,27.97,30.39,5.75,29.88,1002.11,2057.14,2827.00,2682.61,2931.93,348.61,317.29,34.95,0000 0000 0000 0000 000000
2013-07-07 01:24:33,0.02,2.15,0.00,24.02,27.97,30.38,6.02,30.04,1002.13,2057.12,2826.83,2682.29,2931.62,351.08,318.92,34.96,0000 0000 0000 0000 000000
2013-07-07 01:25:33,0.18,2.15,0.00,24.01,27.97,30.37,5.92,30.00,1002.13,2057.17,2826.40,2682.11,2931.24,350.23,318.47,34.96,0000 0000 0000 0000 000000
2013-07-07 01:26:33,0.22,2.16,0.00,24.02,27.97,30.36,5.78,29.79,1002.22,2057.19,2826.17,2682.04,2931.09,349.17,317.52,34.97,0000 0000 0000 0000 000000
2013-07-07 01:27:33,0.09,2.16,0.00,24.01,27.96,30.35,5.92,29.54,1002.32,2057.21,2826.07,2682.01,2931.04,350.78,319.03,34.98,0000 0000 0000 0000 000000
2013-07-07 01:28:33,0.03,2.16,0.00,24.01,27.96,30.36,5.87,29.75,1002.18,2057.26,2826.04,2682.00,2931.02,350.37,318.97,34.98,0000 0000 0000 0000 000000
2013-07-07 01:29:34,0.03,2.16,0.00,24.00,27.95,30.37,6.02,29.96,1002.13,2057.28,2826.01,2682.00,2931.00,351.06,319.20,34.99,0000 0000 0000 0000 000000
2013-07-07 01:30:34,0.04,2.16,0.00,24.00,27.95,30.38,5.88,29.88,1002.12,2057.34,2826.00,2682.00,2931.00,350.36,318.26,34.99,0000 0000 0000 0000 000000
2013-07-07 01:31:34,0.03,2.16,0.00,24.00,27.95,30.38,5.82,29.83,1002.14,2057.38,2825.99,2682.00,2931.00,349.92,318.32,35.00,0000 0000 0000 0000 000000
2013-07-07 01:32:34,0.03,2.16,0.00,24.01,27.95,30.38,5.93,29.83,1002.09,2057.39,2825.97,2682.00,2930.99,350.37,318.42,35.01,0000 0000 0000 0000 000000
2013-07-07 01:33:35,0.05,2.16,0.00,24.01,27.95,30.38,5.94,29.96,1002.12,2057.51,2825.91,2681.99,2930.97,349.89,318.15,35.01,0000 0000 0000 0000 000000
2013-07-07 01:34:35,0.11,2.16,0.00,24.01,27.95,30.37,5.78,29.88,1002.21,2057.63,2825.73,2681.90,2930.93,349.67,317.99,35.02,0000 0000 0000 0000 000000
2013-07-07 01:35:35,0.13,2.16,0.00,24.00,27.95,30.37,5.89,29.67,1002.29,2057.48,2825.30,2681.49,2930.58,350.48,318.75,35.02,0000 0000 0000 0000 000000
2013-07-07 01:36:35,0.13,2.16,0.00,24.02,27.95,30.36,5.82,29.96,1002.39,2057.30,2825.11,2681.18,2930.22,348.00,316.52,35.03,0000 0000 0000 0000 000000
2013-07-07 01:37:36,0.02,2.16,0.00,24.02,27.95,30.38,6.04,29.88,1002.41,2057.43,2825.04,2681.07,2930.08,350.48,318.78,35.03,0000 0000 0000 0000 000000
2013-07-07 01:38:36,0.17,2.16,0.00,24.04,27.95,30.36,5.91,29.88,1002.43,2057.52,2825.01,2681.02,2930.03,349.70,318.06,35.04,0000 0000 0000 0000 000000
2013-07-07 01:39:36,0.09,2.16,0.00,24.02,27.95,30.36,6.05,29.83,1002.43,2057.53,2824.98,2681.01,2930.01,350.74,319.01,35.05,0000 0000 0000 0000 000000
2013-07-07 01:40:36,0.03,2.16,0.00,24.02,27.95,30.36,5.91,29.88,1002.44,2057.41,2824.68,2681.00,2930.00,350.34,318.59,35.05,0000 0000 0000 0000 000000
2013-07-07 01:41:36,-0.04,2.16,0.00,24.03,27.95,30.37,5.91,29.71,1002.45,2057.42,2824.25,2681.00,2929.97,350.65,318.64,35.06,0000 0000 0000 0000 000000
2013-07-07 01:42:37,0.06,2.16,0.00,24.04,27.95,30.35,5.85,29.92,1002.44,2057.47,2824.10,2680.93,2929.90,349.70,318.23,35.06,0000 0000 0000 0000 000000
2013-07-07 01:43:37,0.10,2.16,0.00,24.03,27.95,30.34,5.89,29.71,1002.44,2057.46,2824.03,2680.53,2929.56,350.22,318.54,35.07,0000 0000 0000 0000 000000
2013-07-07 01:44:37,0.22,2.16,0.00,24.01,27.95,30.35,5.95,29.88,1002.44,2057.56,2823.98,2680.25,2929.28,350.19,318.53,35.08,0000 0000 0000 0000 000000
2013-07-07 01:45:37,0.25,2.17,0.00,24.00,27.95,30.36,6.02,29.88,1002.43,2057.53,2823.96,2680.16,2929.20,350.62,318.91,35.08,0000 0000 0000 0000 000000
2013-07-07 01:46:37,-0.04,2.16,0.00,24.00,27.95,30.35,5.83,29.75,1002.45,2057.61,2823.91,2680.12,2929.15,349.32,317.94,35.09,0000 0000 0000 0000 000000
2013-07-07 01:47:38,0.09,2.17,0.00,24.00,27.94,30.36,5.99,29.83,1002.44,2057.60,2823.50,2680.05,2929.07,349.63,318.08,35.09,0000 0000 0000 0000 000000
2013-07-07 01:48:38,0.08,2.17,0.00,24.00,27.94,30.35,5.97,29.71,1002.44,2057.66,2823.18,2680.02,2929.02,350.27,318.26,35.10,0000 0000 0000 0000 000000
2013-07-07 01:49:38,0.13,2.17,0.00,24.02,27.94,30.35,5.98,29.88,1002.42,2057.65,2823.07,2680.00,2928.99,349.78,317.89,35.10,0000 0000 0000 0000 000000
2013-07-07 01:50:38,-0.02,2.17,0.00,24.02,27.93,30.36,5.82,29.92,1002.41,2057.77,2822.97,2679.98,2928.94,349.11,317.53,35.11,0000 0000 0000 0000 000000
2013-07-07 01:51:38,0.17,2.17,0.00,24.02,27.93,30.35,5.93,29.79,1002.44,2057.74,2822.55,2679.77,2928.64,350.54,318.93,35.12,0000 0000 0000 0000 000000
2013-07-07 01:52:39,0.18,2.17,0.00,24.02,27.93,30.35,5.78,29.71,1002.45,2057.72,2822.20,2679.37,2928.25,349.42,318.28,35.12,0000 0000 0000 0000 000000
2013-07-07 01:53:39,0.26,2.17,0.00,24.02,27.92,30.34,5.92,29.88,1002.46,2057.78,2822.07,2679.14,2928.09,350.04,318.36,35.13,0000 0000 0000 0000 000000
2013-07-07 01:54:39,0.15,2.17,0.00,24.02,27.92,30.34,5.77,30.04,1002.46,2057.73,2821.87,2679.04,2928.03,349.40,317.76,35.13,0000 0000 0000 0000 000000
2013-07-07 01:55:39,-0.06,2.17,0.00,24.02,27.92,30.35,5.82,29.88,1002.46,2057.70,2821.39,2679.00,2928.00,349.65,318.04,35.14,0000 0000 0000 0000 000000
2013-07-07 01:56:39,0.11,2.17,0.00,24.03,27.92,30.34,5.85,30.04,1002.46,2057.71,2821.14,2678.96,2927.97,350.05,318.07,35.15,0000 0000 0000 0000 000000
2013-07-07 01:57:39,0.10,2.17,0.00,24.02,27.92,30.33,5.85,30.04,1002.46,2057.81,2821.05,2678.93,2927.95,350.39,318.86,35.15,0000 0000 0000 0000 000000
2013-07-07 01:58:40,0.08,2.17,0.00,24.03,27.92,30.32,5.89,29.92,1002.46,2057.86,2821.01,2678.94,2927.95,350.33,318.97,35.16,0000 0000 0000 0000 000000
2013-07-07 01:59:40,0.00,2.17,0.00,24.02,27.92,30.33,6.09,30.00,1002.46,2057.88,2821.00,2678.93,2927.92,350.23,318.57,35.16,0000 0000 0000 0000 000000
2013-07-07 02:00:40,0.04,2.17,0.00,24.02,27.92,30.32,5.88,29.96,1002.46,2057.88,2821.00,2678.88,2927.77,350.00,318.35,35.17,0000 0000 0000 0000 000000
2013-07-07 02:01:40,0.06,2.17,0.00,24.01,27.92,30.35,5.82,30.08,1002.46,2057.91,2820.99,2678.61,2927.47,349.77,318.16,35.17,0000 0000 0000 0000 000000
2013-07-07 02:02:41,0.17,2.17,0.00,24.02,27.92,30.33,5.98,29.67,1002.46,2057.87,2820.73,2678.29,2927.21,351.37,319.61,35.18,0000 0000 0000 0000 000000
2013-07-07 02:03:41,0.15,2.18,0.00,24.01,27.92,30.34,6.02,29.79,1002.46,2057.89,2820.31,2678.10,2927.07,351.00,319.27,35.19,0000 0000 0000 0000 000000
2013-07-07 02:04:41,0.14,2.18,0.00,24.01,27.92,30.34,5.89,29.83,1002.45,2057.89,2820.13,2678.03,2927.03,349.66,318.05,35.19,0000 0000 0000 0000 000000
2013-07-07 02:05:41,0.05,2.18,0.00,24.02,27.92,30.34,5.84,29.88,1002.43,2057.85,2820.05,2678.01,2927.00,349.06,317.76,35.20,0000 0000 0000 0000 000000
2013-07-07 02:06:41,0.00,2.18,0.00,24.02,27.92,30.34,5.90,29.88,1002.43,2057.85,2820.00,2677.99,2926.98,350.31,318.86,35.20,0000 0000 0000 0000 000000
2013-07-07 02:07:42,0.00,2.18,0.00,24.02,27.92,30.35,5.96,29.92,1002.39,2057.85,2819.85,2677.97,2926.87,350.44,318.84,35.21,0000 0000 0000 0000 000000
2013-07-07 02:08:42,0.06,2.18,0.00,24.04,27.92,30.33,5.82,29.83,1002.32,2057.87,2819.66,2677.94,2926.63,349.94,318.24,35.22,0000 0000 0000 0000 000000
2013-07-07 02:09:42,0.11,2.18,0.00,24.03,27.92,30.34,5.67,29.67,1002.38,2057.93,2819.36,2677.80,2926.36,348.95,317.36,35.22,0000 0000 0000 0000 000000
2013-07-07 02:10:42,0.18,2.18,0.00,24.02,27.92,30.33,5.92,29.88,1002.27,2057.96,2819.14,2677.52,2926.18,350.59,319.06,35.23,0000 0000 0000 0000 000000
2013-07-07 02:11:42,0.18,2.18,0.00,24.02,27.92,30.33,5.90,29.88,1002.24,2057.95,2819.04,2677.24,2926.08,349.86,318.15,35.23,0000 0000 0000 0000 000000
2013-07-07 02:12:43,0.08,2.18,0.00,24.03,27.92,30.33,5.81,29.96,1002.19,2057.95,2819.00,2677.08,2926.03,350.19,318.30,35.24,0000 0000 0000 0000 000000
2013-07-07 02:13:43,0.06,2.18,0.00,24.03,27.92,30.33,5.98,29.88,1002.16,2057.96,2818.92,2677.03,2926.00,351.13,319.27,35.24,0000 0000 0000 0000 000000
2013-07-07 02:14:43,0.04,2.18,0.00,24.04,27.92,30.33,5.98,29.92,1002.15,2057.95,2818.58,2677.01,2925.97,349.38,317.67,35.25,0000 0000 0000 0000 000000
2013-07-07 02:15:43,0.06,2.18,0.00,24.04,27.92,30.32,5.88,29.79,1002.24,2057.94,2818.23,2677.00,2925.97,350.02,318.28,35.26,0000 0000 0000 0000 000000
2013-07-07 02:16:44,0.03,2.18,0.00,24.04,27.92,30.32,5.86,29.71,1002.32,2057.95,2818.10,2676.98,2925.91,349.66,317.97,35.26,0000 0000 0000 0000 000000
2013-07-07 02:17:44,0.06,2.18,0.00,24.05,27.91,30.32,5.78,30.04,1002.39,2057.95,2818.05,2676.99,2925.86,349.39,317.91,35.27,0000 0000 0000 0000 000000
2013-07-07 02:18:44,0.01,2.18,0.00,24.05,27.91,30.31,5.89,29.88,1002.42,2057.97,2818.02,2676.98,2925.82,349.86,318.13,35.27,0000 0000 0000 0000 000000
2013-07-07 02:19:44,0.02,2.18,0.00,24.05,27.91,30.33,5.82,29.83,1002.43,2057.94,2818.00,2676.98,2925.70,350.48,318.72,35.28,0000 0000 0000 0000 000000
2013-07-07 02:20:45,0.00,2.18,0.00,24.07,27.91,30.31,5.88,29.88,1002.40,2057.96,2818.00,2676.97,2925.67,350.27,318.00,35.29,0000 0000 0000 0000 000000
2013-07-07 02:21:45,0.03,2.18,0.00,24.08,27.91,30.31,5.89,29.67,1002.37,2057.96,2818.00,2676.97,2925.67,350.87,319.06,35.29,0000 0000 0000 0000 000000
2013-07-07 02:22:45,-0.00,2.18,0.00,24.07,27.91,30.31,5.92,29.79,1002.23,2057.95,2818.00,2676.94,2925.44,350.59,318.76,35.30,0000 0000 0000 0000 000000
2013-07-07 02:23:45,0.04,2.18,0.00,24.08,27.91,30.31,5.74,29.92,1002.17,2057.92,2818.00,2676.75,2925.20,349.24,317.52,35.30,0000 0000 0000 0000 000000
2013-07-07 02:24:46,0.09,2.18,0.00,24.08,27.90,30.31,5.94,29.92,1002.21,2057.93,2817.93,2676.40,2925.08,350.01,318.22,35.31,0000 0000 0000 0000 000000
2013-07-07 02:25:46,0.14,2.18,0.00,24.07,27.90,30.30,5.83,29.92,1002.25,2057.96,2817.51,2676.19,2925.03,349.91,318.15,35.32,0000 0000 0000 0000 000000
2013-07-07 02:26:46,0.15,2.18,0.00,24.09,27.90,30.30,5.85,29.75,1002.34,2057.96,2817.21,2676.08,2925.01,348.67,317.04,35.32,0000 0000 0000 0000 000000
2013-07-07 02:27:46,0.08,2.18,0.00,24.09,27.90,30.31,5.77,29.92,1002.35,2057.97,2817.08,2676.03,2924.99,349.45,317.74,35.33,0000 0000 0000 0000 000000
2013-07-07 02:28:47,0.05,2.19,0.00,24.09,27.90,30.30,6.00,29.75,1002.39,2057.96,2817.03,2676.01,2924.96,350.40,318.50,35.33,0000 0000 0000 0000 000000
2013-07-07 02:29:47,0.00,2.19,0.00,24.09,27.90,30.31,5.84,29.83,1002.43,2057.95,2817.00,2676.00,2924.96,350.35,318.43,35.34,0000 0000 0000 0000 000000
2013-07-07 02:30:47,0.00,2.19,0.00,24.09,27.90,30.30,5.69,29.83,1002.46,2057.96,2817.00,2676.00,2924.96,348.52,316.66,35.34,0000 0000 0000 0000 000000
2013-07-07 02:31:47,0.00,2.19,0.00,24.10,27.90,30.30,5.95,29.92,1002.46,2057.96,2817.00,2676.00,2924.94,349.55,318.05,35.35,0000 0000 0000 0000 000000
2013-07-07 02:32:47,-0.01,2.19,0.00,24.10,27.90,30.31,5.91,30.04,1002.46,2057.88,2817.00,2676.00,2924.92,349.23,317.58,35.36,0000 0000 0000 0000 000000
2013-07-07 02:33:48,-0.06,2.18,0.00,24.10,27.90,30.31,5.88,29.75,1002.46,2057.93,2817.00,2676.00,2924.94,349.53,317.69,35.36,0000 0000 0000 0000 000000
2013-07-07 02:34:48,0.04,2.19,0.00,24.10,27.90,30.31,5.81,29.92,1002.46,2057.96,2817.00,2676.00,2924.95,349.57,317.87,35.37,0000 0000 0000 0000 000000
2013-07-07 02:35:48,0.01,2.19,0.00,24.11,27.90,30.31,5.86,29.71,1002.46,2057.96,2817.00,2676.00,2924.95,350.30,318.80,35.37,0000 0000 0000 0000 000000